DW8338 Weather Reports


Display with metric or nautical units.
time (UTC)temp
F
wind
direction
speed
MPH
gust
MPH
rain 1hr
in
rain 24hr
in
rain mn
in
humidity
%
barometer
mb
20260503225304 62 166 5.0 6.0 0.00 0.00 0.00 78 1014.1
20260503224804 62 163 3.0 6.0 0.00 0.00 0.00 78 1014.1
20260503224304 62 179 6.0 8.0 0.00 0.00 0.00 78 1014.1
20260503223804 62 182 2.0 5.0 0.00 0.00 0.00 77 1014.1
20260503223304 62 166 3.0 6.0 0.00 0.00 0.00 78 1014.1
20260503222804 62 175 4.0 8.0 0.00 0.00 0.00 77 1014.1
20260503222304 62 163 2.0 5.0 0.00 0.00 0.00 77 1014.1
20260503221304 62 159 2.0 6.0 0.00 0.00 0.00 77 1014.0
20260503220804 62 177 5.0 7.0 0.00 0.00 0.00 76 1014.0
20260503215804 62 181 3.0 7.0 0.00 0.00 0.00 76 1014.0
20260503215304 62 179 4.0 8.0 0.00 0.00 0.00 76 1014.0
20260503214804 62 184 4.0 8.0 0.00 0.00 0.00 75 1014.0
20260503214304 63 180 2.0 5.0 0.00 0.00 0.00 75 1013.9
20260503212804 63 173 4.0 6.0 0.00 0.00 0.00 74 1013.9
20260503212305 63 179 3.0 7.0 0.00 0.00 0.00 74 1013.9
20260503211804 63 180 3.0 6.0 0.00 0.00 0.00 74 1013.9
20260503211304 63 206 3.0 6.0 0.00 0.00 0.00 73 1013.9
20260503210804 63 231 3.0 7.0 0.00 0.00 0.00 74 1013.9
20260503205304 63 234 3.0 7.0 0.00 0.00 0.00 74 1013.7
20260503204803 63 244 5.0 10.0 0.00 0.00 0.00 73 1013.6
20260503204304 63 261 3.0 8.0 0.00 0.00 0.00 73 1013.6
20260503203804 63 232 3.0 6.0 0.00 0.00 0.00 74 1013.6
20260503203303 63 248 4.0 9.0 0.00 0.00 0.00 73 1013.5
20260503202804 64 219 3.0 9.0 0.00 0.00 0.00 73 1013.5
20260503201804 64 226 5.0 9.0 0.00 0.00 0.00 72 1013.3
20260503200804 64 234 5.0 12.0 0.00 0.00 0.00 72 1013.1
20260503200304 64 226 6.0 12.0 0.00 0.00 0.00 71 1013.0
20260503195304 64 247 5.0 12.0 0.00 0.00 0.00 70 1012.9
20260503194304 65 238 7.0 13.0 0.00 0.00 0.00 69 1012.8
20260503193303 65 251 6.0 13.0 0.00 0.00 0.00 68 1012.6
20260503192804 65 226 7.0 13.0 0.00 0.00 0.00 67 1012.6
20260503192305 66 234 6.0 12.0 0.00 0.00 0.00 67 1012.7
20260503190804 66 244 7.0 12.0 0.00 0.00 0.00 66 1012.6
20260503190304 66 248 7.0 12.0 0.00 0.00 0.00 65 1012.4
20260503185804 67 242 9.0 14.0 0.00 0.00 0.00 64 1012.4
20260503185305 67 246 5.0 8.0 0.00 0.00 0.00 63 1012.4
20260503184803 67 232 7.0 14.0 0.00 0.00 0.00 63 1012.4
20260503183804 68 242 9.0 14.0 0.00 0.00 0.00 61 1012.3
20260503183304 68 220 7.0 13.0 0.00 0.00 0.00 59 1012.3
20260503182804 68 232 7.0 16.0 0.00 0.00 0.00 59 1012.3
20260503182305 68 220 9.0 15.0 0.00 0.00 0.00 57 1012.3
20260503181804 69 240 9.0 15.0 0.00 0.00 0.00 58 1012.2
20260503180304 70 222 11.0 18.0 0.00 0.00 0.00 59 1012.2
20260503175803 70 227 10.0 15.0 0.00 0.00 0.00 58 1012.1
20260503175304 70 211 10.0 15.0 0.00 0.00 0.00 59 1012.0
20260503174804 71 240 10.0 16.0 0.00 0.00 0.00 59 1012.0
20260503174304 71 205 7.0 15.0 0.00 0.00 0.00 58 1012.0
20260503173804 71 236 9.0 17.0 0.00 0.00 0.00 57 1012.0
20260503173304 71 228 12.0 18.0 0.00 0.00 0.00 57 1012.1
20260503172803 71 208 9.0 14.0 0.00 0.00 0.00 57 1012.0
20260503172305 71 222 10.0 18.0 0.00 0.00 0.00 57 1012.1
20260503171804 72 225 9.0 20.0 0.00 0.00 0.00 57 1012.0
20260503171304 72 222 7.0 13.0 0.00 0.00 0.00 55 1012.0
20260503170804 72 238 10.0 18.0 0.00 0.00 0.00 54 1012.0
20260503150804 74 267 10.0 16.0 0.00 0.00 0.00 48 1012.2
20260503150304 74 233 12.0 20.0 0.00 0.00 0.00 48 1012.1
20260503131304 74 237 9.0 13.0 0.00 0.00 0.00 54 1013.0
20260503130803 73 232 9.0 17.0 0.00 0.00 0.00 54 1013.0
20260503130304 74 249 6.0 12.0 0.00 0.00 0.00 54 1013.0
20260503110804 72 220 5.0 10.0 0.00 0.00 0.00 58 1014.1
20260503110304 72 228 6.0 12.0 0.00 0.00 0.00 59 1014.1
20260503090304 67 267 5.0 9.0 0.00 0.00 0.00 76 1014.3
20260503081304 65 165 3.0 6.0 0.00 0.00 0.00 82 1014.3
20260503080804 64 211 3.0 5.0 0.00 0.00 0.00 82 1014.3
20260503080304 64 248 3.0 5.0 0.00 0.00 0.00 82 1014.3
20260503072804 63 301 1.0 3.0 0.00 0.00 0.00 87 1014.1
20260503072305 63 264 2.0 3.0 0.00 0.00 0.00 87 1014.1
20260503071804 63 305 1.0 3.0 0.00 0.00 0.00 87 1014.1
20260503071304 63 257 2.0 3.0 0.00 0.00 0.00 87 1014.1
20260503070804 63 228 2.0 3.0 0.00 0.00 0.00 87 1014.1
20260503070304 63 265 3.0 3.0 0.00 0.00 0.00 87 1014.1
20260503060304 63 247 2.0 3.0 0.00 0.00 0.00 87 1013.9
20260503054804 63 191 1.0 3.0 0.00 0.00 0.00 87 1013.8
20260503054303 63 208 2.0 3.0 0.00 0.00 0.00 87 1013.7
20260503053304 63 233 1.0 3.0 0.00 0.00 0.00 87 1013.5
20260503052804 63 168 1.0 3.0 0.00 0.00 0.00 87 1013.5
20260503052305 63 190 2.0 3.0 0.00 0.00 0.00 87 1013.6
20260503051803 63 156 2.0 5.0 0.00 0.00 0.00 87 1013.6
20260503051303 63 225 2.0 5.0 0.00 0.00 0.00 87 1013.6
20260503050804 63 232 3.0 5.0 0.00 0.00 0.00 88 1013.6
20260503050304 63 187 1.0 2.0 0.00 0.00 0.00 88 1013.6
20260503045804 62 259 2.0 3.0 0.00 0.00 0.00 88 1013.6
20260503045305 62 244 2.0 3.0 0.00 0.00 0.00 88 1013.6
20260503044804 62 244 2.0 3.0 0.00 0.00 0.00 87 1013.5
20260503044304 62 231 3.0 5.0 0.00 0.00 0.00 87 1013.5
20260503043803 62 220 6.0 7.0 0.00 0.00 0.00 87 1013.5
20260503043304 63 228 3.0 5.0 0.00 0.00 0.00 87 1013.5
20260503042804 63 205 3.0 3.0 0.00 0.00 0.00 87 1013.5
20260503042305 63 221 2.0 3.0 0.00 0.00 0.00 87 1013.6
20260503041804 63 198 3.0 6.0 0.00 0.00 0.00 87 1013.6
20260503041303 63 222 3.0 6.0 0.00 0.00 0.00 86 1013.6
20260503040804 63 189 3.0 5.0 0.00 0.00 0.00 86 1013.6
20260503040304 63 208 2.0 3.0 0.00 0.00 0.00 86 1013.8
20260503035804 63 198 3.0 5.0 0.00 0.00 0.00 86 1013.7
20260503035305 63 191 2.0 3.0 0.00 0.00 0.00 86 1013.7
20260503034804 63 203 1.0 3.0 0.00 0.00 0.00 86 1013.8
20260503032803 63 191 1.0 3.0 0.00 0.00 0.00 85 1013.8
20260503032304 63 157 0.0 2.0 0.00 0.00 0.00 85 1013.8
20260503031804 63 133 1.0 3.0 0.00 0.00 0.00 85 1013.9
20260503031303 63 200 1.0 3.0 0.00 0.00 0.00 85 1013.9
20260503030804 63 163 2.0 3.0 0.00 0.00 0.00 85 1014.0
20260503030304 63 196 1.0 3.0 0.00 0.00 0.00 85 1014.2
20260503025804 63 228 2.0 3.0 0.00 0.00 0.00 85 1014.2
20260503024804 63 183 2.0 3.0 0.00 0.00 0.00 85 1014.0
20260503024303 63 214 1.0 3.0 0.00 0.00 0.00 84 1014.0
20260503023804 63 193 2.0 5.0 0.00 0.00 0.00 84 1014.0
20260503023304 63 192 2.0 3.0 0.00 0.00 0.00 84 1014.0
20260503022804 63 178 2.0 3.0 0.00 0.00 0.00 84 1014.0
20260503022305 63 206 2.0 3.0 0.00 0.00 0.00 84 1013.9
20260503021803 63 158 1.0 3.0 0.00 0.00 0.00 84 1013.9
20260503021303 63 182 0.0 3.0 0.00 0.00 0.00 84 1014.1
20260503020804 63 165 0.0 3.0 0.00 0.00 0.00 84 1014.1
20260503020304 63 185 1.0 3.0 0.00 0.00 0.00 84 1014.2
20260503015804 63 208 1.0 3.0 0.00 0.00 0.00 84 1014.2
20260503015305 63 167 1.0 3.0 0.00 0.00 0.00 83 1014.2
20260503014804 63 182 2.0 3.0 0.00 0.00 0.00 83 1014.4
20260503014304 63 192 2.0 3.0 0.00 0.00 0.00 83 1014.4
20260503013805 63 184 1.0 3.0 0.00 0.00 0.00 83 1014.4
20260503013304 63 203 2.0 3.0 0.00 0.00 0.00 82 1014.5
20260503012804 63 177 2.0 5.0 0.00 0.00 0.00 82 1014.5
20260503011804 63 196 2.0 5.0 0.00 0.00 0.00 81 1014.6
20260503010804 63 166 4.0 5.0 0.00 0.00 0.00 81 1014.9
20260503010304 63 171 3.0 6.0 0.00 0.00 0.00 81 1014.9
20260503005804 63 176 3.0 5.0 0.00 0.00 0.00 81 1014.9
20260503005304 63 146 3.0 6.0 0.00 0.00 0.00 80 1015.0
20260503004804 63 189 1.0 3.0 0.00 0.00 0.00 80 1015.0
20260503004304 63 203 3.0 6.0 0.00 0.00 0.00 80 1015.1
20260503003804 63 183 5.0 6.0 0.00 0.00 0.00 80 1015.1
20260503002803 63 157 3.0 6.0 0.00 0.00 0.00 80 1015.1
20260503002305 63 167 3.0 6.0 0.00 0.00 0.00 80 1015.1
20260503001804 63 159 3.0 5.0 0.00 0.00 0.00 80 1015.3
20260503001304 63 176 3.0 5.0 0.00 0.00 0.00 79 1015.3
20260503000304 63 161 3.0 5.0 0.00 0.00 0.00 79 1015.4
20260502235804 63 176 1.0 3.0 0.00 0.00 0.00 79 1015.4
20260502235305 63 192 2.0 3.0 0.00 0.00 0.00 79 1015.4
20260502234804 63 172 3.0 3.0 0.00 0.00 0.00 79 1015.4
20260502234304 63 185 3.0 5.0 0.00 0.00 0.00 78 1015.4
20260502233804 63 179 3.0 5.0 0.00 0.00 0.00 78 1015.4
20260502232804 63 209 2.0 5.0 0.00 0.00 0.00 78 1015.5
20260502231804 64 191 2.0 3.0 0.00 0.00 0.00 78 1015.4
20260502230304 64 193 3.0 3.0 0.00 0.00 0.00 77 1015.5
20260502225804 64 197 3.0 5.0 0.00 0.00 0.00 77 1015.4